Regional Weather Roundup
Issued by NWS

Home | Current Version | Previous Version | Text Only | Print | Product List | Glossary Off
Versions: 1 2 3 4 5 6 7 8 9 10 11 12 13 14 15 16 17 18 19 20 21 22 23 24 25 26 27 28 29 30 31 32 33 34 35 36 37 38 39 40 41 42 43 44 45 46 47 48 49 50

000
ASUS43 KBIS 281110
RWRND

NORTH DAKOTA REGIONAL WEATHER ROUNDUP
NATIONAL WEATHER SERVICE BISMARCK ND
600 AM CDT THU MAY 28 2015

NOTE: "FAIR" INDICATES FEW OR NO CLOUDS BELOW 12,000 FEET WITH NO
SIGNIFICANT WEATHER AND/OR OBSTRUCTIONS TO VISIBILITY.


NDZ001>003-009>011-017-281200-
NORTHWEST NORTH DAKOTA

CITY           SKY/WX    TMP DP  RH WIND       PRES   REMARKS
WILLISTON      MOCLDY    56  54  93 SW3       29.88S
MINOT          CLOUDY    58  56  93 E9        29.87F
MINOT AFB      CLOUDY    58  58 100 SE10      29.86F
$$

NDZ018>021-031>035-040>046-281200-
SOUTHWEST NORTH DAKOTA

CITY           SKY/WX    TMP DP  RH WIND       PRES   REMARKS
BISMARCK       MOCLDY    58  56  93 CALM      29.89S
DICKINSON      FOG       47  46  97 SW3       29.88S VSB 1/4
GARRISON         N/A     56  54  93 S6        29.88S
HETTINGER ARPT FOG       47  46  97 CALM      29.92S VSB 1/2
$$

NDZ004>008-012>016-024-026-027-054-281200-
NORTHEAST NORTH DAKOTA

CITY           SKY/WX    TMP DP  RH WIND       PRES   REMARKS
GRAND FORKS    RAIN      56  54  93 NE5       29.95F
GRND FRKS AFB  LGT RAIN  56  54  92 E6        29.94F
DEVILS LAKE    CLOUDY    59  54  82 SE7       29.91F
$$

NDZ022-023-025-028>030-036>039-047>053-281200-
SOUTHEAST NORTH DAKOTA

CITY           SKY/WX    TMP DP  RH WIND       PRES   REMARKS
FARGO          LGT RAIN  62  58  86 N3        29.94S
JAMESTOWN      LGT RAIN  59  57  93 E5        29.90F
$$



USA.gov is the U.S. government's official web portal to all federal, state and local government web resources and services.